Home   Weather   Esfahãn   Past weeks

Flag for Iran Past Weather in Esfahãn, Iran — Yesterday and Last 2 Weeks

Now
43 °F

Sunny.


Feels Like: 40 °F
Forecast: 22 / 51 °F
Wind: 5 mph from East

Location: Esfahan

Current Time: Dec 10, 2016 at 12:48:01 pm

Latest Report: Dec 10, 2016 at 12:00 pm


Visibility: 10 mi

Pressure: 30.04 "Hg (24.77 "Hg at 1576m altitude)

Humidity: 42%

Dew Point: 21 °F

Location of EsfahãnLocation

Past Weather in Esfahãn — Graph

°F

Esfahãn Temperature Yesterday

Maximum temperature yesterday: 48 °F (at 2:00 pm)
Minimum temperature yesterday: 27 °F (at 11:30 pm)
Average temperature yesterday: 39 °F

High & Low Weather Summary for the Past Weeks

 TemperatureHumidityPressure
High66 °F (Dec 5, 3:00 pm)100% (Dec 1, 10:00 pm)30.42 "Hg (Dec 1, 10:00 pm)
Low10 °F (Nov 26, 3:30 am)19% (Nov 29, 4:00 pm)29.98 "Hg (Dec 9, 12:30 pm)
Average41 °F57%30.19 "Hg
* Reported Nov 25 11:30 am — Dec 10 11:30 am, Esfahãn, Weather by CustomWeather, © 2016

Note: Actual official high and low records may vary slightly from our data, if they occured in-between our weather recording intervals... More about our weather records

Advertising

Esfahãn Weather History for the Previous 24 Hours

Scroll right to see more
 ConditionsComfort  
Time TempWeatherWind HumidityBarometerVisibility
11:30 am
Sat, Dec 10
43 °FSunny.5 mph49%30.07 "Hg10 mi
11:00 am41 °FClear.No wind45%30.09 "Hg5 mi
10:30 am37 °FClear.No wind52%30.09 "Hg4 mi
10:00 am36 °FClear.5 mph56%30.09 "Hg4 mi
9:30 am32 °FClear.5 mph69%30.09 "Hg4 mi
9:00 am30 °FClear.No wind64%30.09 "Hg4 mi
8:30 am27 °FHaze.No wind69%30.09 "Hg3 mi
8:00 am23 °FIce fog.No wind80%30.07 "Hg3 mi
7:30 am16 °FSunny.No wind93%30.07 "Hg10 mi
7:00 am19 °FClear.No wind86%30.07 "Hg10 mi
6:30 am18 °FClear.5 mph93%30.07 "Hg10 mi
6:00 am18 °FClear.No wind86%30.04 "Hg10 mi
5:30 am19 °FClear.No wind86%30.04 "Hg10 mi
5:00 am21 °FClear.5 mph86%30.04 "Hg10 mi
4:30 am21 °FClear.No wind80%30.04 "Hg10 mi
4:00 am21 °FClear.5 mph93%30.04 "Hg10 mi
3:30 am23 °FClear.No wind86%30.04 "Hg10 mi
3:00 am23 °FClear.No wind86%30.04 "Hg10 mi
2:30 am23 °FClear.5 mph86%30.04 "Hg10 mi
2:00 am25 °FClear.No wind80%30.04 "Hg10 mi
1:30 am23 °FClear.No wind80%30.04 "Hg10 mi
1:00 am25 °FClear.No wind80%30.04 "Hg10 mi
12:30 am27 °FClear.5 mph74%30.04 "Hg10 mi
12:00 am28 °FClear.7 mph69%30.04 "Hg10 mi
11:30 pm
Fri, Dec 9
27 °FClear.7 mph74%30.04 "Hg10 mi
11:00 pm30 °FClear.5 mph69%30.04 "Hg10 mi
10:30 pm28 °FClear.5 mph74%30.04 "Hg10 mi
10:00 pm28 °FClear.7 mph74%30.04 "Hg10 mi
9:30 pm30 °FClear.9 mph69%30.07 "Hg10 mi
9:00 pm30 °FClear.7 mph69%30.07 "Hg10 mi
8:30 pm34 °FClear.5 mph60%30.04 "Hg10 mi
8:00 pm36 °FClear.5 mph56%30.04 "Hg10 mi
7:30 pm36 °FClear.5 mph52%30.04 "Hg10 mi
7:00 pm37 °FClear.5 mph52%30.04 "Hg10 mi
6:30 pm41 °FClear.12 mph42%30.01 "Hg10 mi
6:00 pm41 °FClear.12 mph42%30.01 "Hg10 mi
5:30 pm43 °FClear.9 mph39%30.01 "Hg10 mi
5:00 pm45 °FSunny.9 mph37%30.01 "Hg10 mi
4:30 pm46 °FSunny.14 mph32%29.98 "Hg10 mi
4:00 pm48 °FPassing clouds.18 mph29%29.98 "HgN/A
3:30 pm48 °FPassing clouds.22 mph34%29.98 "HgN/A
3:00 pm48 °FPassing clouds.16 mph37%29.98 "HgN/A
2:30 pm48 °FPassing clouds.22 mph37%29.98 "HgN/A
2:00 pm48 °FPassing clouds.22 mph40%29.98 "HgN/A
1:30 pm46 °FPassing clouds.22 mph43%29.98 "HgN/A
1:00 pm46 °FPassing clouds.22 mph40%29.98 "HgN/A
12:30 pm46 °FPassing clouds.18 mph46%29.98 "HgN/A
12:00 pm46 °FPassing clouds.22 mph46%30.01 "HgN/A
Weather by CustomWeather, © 2016

See weather overviewHow to use our weather pages